Погода в Дырестуй

Россия / Республика Бурятия     50°39′14″N   106°03′55″E
темп.,
°C
ветер,
м/с
пор.,
м/с
влажн.,
%
обл.,
%
осадки,
мм/ч
давл.,
гПа
погр.,
м
9 мая, вс
вс923:00+5с227185 0.0 101320
02:00+4сз227678 0.0 101312
05:00+3зюз117992 0.0 101310
08:00+7ююз236255 0.0 1013357
11:00+11юз3447100 0.0 10101353
14:00+14зсз1438100 0.0 10072040
17:00+14ссв0140100 0.1 10061256
20:00+11ююв225816 0.1 100533
10 мая, пн
пн1023:00+8св2267100 0.0 100623
02:00+6с3579100 0.1 1008204
05:00+5ссв3682100 0.0 1009538
08:00+6с3662100 0.0 1011839
11:00+9ссв5649100 0.0 10101552
14:00+10св6738100 0.0 10101973
17:00+9ссв7840100 0.0 10111853
20:00+6с575463 0.0 1014911
11 мая, вт
вт1123:00+3ссз3571100 0.0 1016201
02:00+2сз228137 0.0 101615
05:00+3зсз127688 0.0 101679
08:00+6сз365983 0.0 1016913
11:00+9с4647100 0.0 10151773
14:00+11ссв563799 0.3 10142130
17:00+12с55326 0.0 10141866
20:00+9ссв34431 0.0 101587
12 мая, ср
ср1223:00+5зсз11581 0.0 101610
02:00+4зюз11620 0.0 101610
05:00+2зюз22673 0.0 101510
08:00+7юз23518 0.0 1014305
11:00+12юз34395 0.0 10111025
14:00+16юз3422100 0.0 10072670
17:00+16ссв232299 0.0 10052736
20:00+12св584273 0.0 1006376
13 мая, чт
чт1323:00+10ссв485290 0.0 1008284
02:00+8ссв4661100 0.0 1008253
05:00+6ссв4763100 0.0 1009252
08:00+8с61149100 0.0 1010871
11:00+9ссв91246100 0.0 10111326
14:00+10с10122832 0.0 10121875
17:00+11с810265 0.0 10132307
20:00+8ссз69361 0.0 1015632